Regional Weather Roundup
Issued by NWS Northern Indiana

Home | Current Version | Previous Version | Text Only | Print | Product List | Glossary Off
Versions: 1 2 3 4 5 6 7 8 9 10 11 12 13 14 15 16 17 18 19 20 21 22 23 24 25 26 27 28 29 30 31 32 33 34 35 36 37 38 39 40 41 42 43 44 45 46 47 48 49 50

000
ASUS43 KIWX 241601
RWRIWX

KIWX WEATHER ROUNDUP
NATIONAL WEATHER SERVICE NORTHERN INDIANA
1200 PM EDT WED MAY 24 2017

NOTE: "FAIR" INDICATES FEW OR NO CLOUDS BELOW 12,000 FEET WITH NO
SIGNIFICANT WEATHER AND/OR OBSTRUCTIONS TO VISIBILITY.

* THESE STATIONS ARE NOT UNDER NWS QUALITY CONTROL. THEY ALSO MAY NOT
  REPORT WEATHER SUCH AS PRECIPITATION OR FOG.

INZ001>027-241700-
NORTHERN INDIANA

CITY           SKY/WX    TMP DP  RH WIND       PRES   REMARKS
GARY*          CLOUDY    55  52  88 N10       29.56F
MICHIGAN CITY* FAIR      59  55  88 N9        29.54S
SOUTH BEND     FAIR      66  32  28 E6        29.52F
ELKHART*       SUNNY     68  55  64 E9        29.52F
GOSHEN         FAIR      70  54  56 SE9       29.51F
MONTICELLO*    LGT RAIN  60  56  84 NE3       29.51F
ANGOLA*        PTSUNNY   63  54  72 E7        29.54S
FORT WAYNE     CLOUDY    66  58  75 E10       29.52F
PERU/GRISSOM   FAIR      65  57  75 NW7       29.50F

$$
INZ028>050-241700-
CENTRAL INDIANA

CITY           SKY/WX    TMP DP  RH WIND       PRES   REMARKS
LAFAYETTE      CLOUDY    61  57  87 VRB3      29.51F
KOKOMO*        FAIR      64  56  75 NW6       29.51F
MUNCIE*        TSTM      63  59  87 NW5       29.50F
INDIANAPOLIS   LGT RAIN  61  57  87 NW8       29.50F FOG

$$
MIZ043>046-050>051-056>058-064>065-071>073-077>080-241700-
SOUTHWEST LOWER MICHIGAN

CITY           SKY/WX    TMP DP  RH WIND       PRES   REMARKS
BATTLE CREEK   FAIR      66  56  70 NE7       29.56F
BENTON HARBOR  FAIR      68  54  60 VRB6      29.53F
COLDWATER*     LGT RAIN  62  56  82 E6        29.56R
HILLSDALE*     PTSUNNY   66  55  68 E7        29.55F
HOLLAND        PTSUNNY   64  54  69 E12G18    29.57F
GRAND RAPIDS   PTSUNNY   64  56  75 NE13      29.58F
KALAMAZOO      FAIR      69  53  56 VRB6      29.56F
STURGIS*       PTSUNNY   68  53  60 E12       29.53F
THREE RIVERS*  FAIR      66  55  67 E7        29.54F

$$
OHZ001>008-015>018-024>025-241700-
NORTHWEST OHIO

CITY           SKY/WX    TMP DP  RH WIND       PRES   REMARKS
DEFIANCE       PTSUNNY   68  58  70 E12       29.53F
FINDLAY        PTSUNNY   71  57  61 E13       29.52F
TOLEDO EXPRESS LGT RAIN  66  60  81 NE9       29.54F
TOLEDO METCALF PTSUNNY   68  62  81 E8        29.56F
LIMA           PTSUNNY   68  59  73 SE13      29.53S

$$
AND FOR LAKE MICHIGAN COASTAL AND OPEN LAKE BUOY OBSERVATIONS

STATION/POSITION TEMP    WIND        PRES    VSBY  WAVE
                 AIR SEA DIR/SP/G                  HT/PER
                 (F)     (DEG/KT/KT) (MB)    (MI)  (FT/S)
CALUMET HARBOR    52     340/ 11/ 14 1000.8F
MICHIGAN CITY     53      30/ 11/ 12   N/A
BURNS HARBOR      53      40/ 10/ 12 1001.4S
SOUTH LAKE BUOY   48 45   20/ 16/ 17 1002.1          2/ 4
4 MI NW BRIDGMAN  55 58   50/ 14/ 17 1000.6F         3/ 4
MICHIGAN CITY     52 54   30/ 12/ 16   N/A           3/ 4

$$
&&




USA.gov is the U.S. government's official web portal to all federal, state and local government web resources and services.